#timestamp,LO_Frequency,Hit,StdDev 
1662739215.9,286046998.3,N
1662739235.7,286047000.8,N
1662739255.6,286046999.9,N
1662739275.4,286047000.3,N
1662739295.2,286046999.8,N
1662739315.1,286047000.8,N
1662739316.0,286047000.8,N
1662739335.8,286047001.1,N
1662739355.6,286047000.4,N
1662739375.5,286047000.7,N
1662739395.3,286046998.7,N
1662739415.1,286046998.6,N
1662739435.9,286046998.8,N
1662739455.7,286046999.2,N
1662739475.6,286046999.0,N
1662739495.4,286046999.5,N
1662739515.2,286046996.8,Y
1662739535.1,286046996.6,P
1662739536.0,286046996.6,N
1662739555.8,286046996.6,N
1662739575.7,286046999.0,N
1662739595.5,286046998.4,N
1662739615.3,286046998.4,N
1662739635.2,286046999.0,N
1662739655.9,286046996.9,N
1662739675.7,286046999.1,N
1662739695.6,286046999.1,N
1662739715.4,286046998.8,N
1662739735.3,286046998.7,N
1662739755.1,286046999.0,N
1662739756.0,286046999.0,N
1662739775.8,286046999.5,N
1662739825.7,286046996.5,E
1662739835.6,286047001.1,N
1662739855.5,286047002.7,P
1662739875.3,286047000.1,N
1662739895.1,286047001.7,N
1662739915.9,286047002.2,N
1662739935.7,286047004.4,Y
1662739955.6,286047000.2,P
1662739975.4,286047000.2,N
1662739995.2,286046999.9,N
1662740015.1,286047000.9,N
1662740016.0,286047000.9,N
1662740035.8,286047000.0,N
1662740055.6,286046999.7,N
1662740075.5,286047001.6,N
1662740095.3,286047001.7,N
1662740115.2,286047004.3,Y
1662740135.9,286047001.7,P
1662740155.7,286047001.5,N
1662740175.6,286047003.6,P
1662740195.4,286047003.3,Y
1662740215.3,286047002.0,P
1662740235.1,286047004.3,P
1662740236.0,286047004.3,P
1662740255.8,286047001.5,N
1662740275.7,286047004.0,Y
1662740295.5,286047000.7,P
1662740315.4,286046998.2,N
1662740335.2,286046998.8,N
1662740355.0,286047000.8,N
1662740355.9,286047000.8,N
1662740375.8,286047000.6,N
1662740395.6,286046998.9,N
1662740415.4,286047001.1,N
1662740435.3,286047000.6,N
1662740455.1,286047001.1,N
1662740475.9,286047000.4,N
1662740495.7,286047000.6,N
1662740515.5,286047000.1,N
1662740535.4,286046999.7,N
1662740555.2,286046999.8,N
1662740575.0,286047002.5,N
1662740575.9,286047002.5,N
1662740595.8,286047001.9,N
1662740615.6,286047000.0,N
1662740635.5,286047000.1,N
1662740655.3,286047002.8,N
1662740675.1,286046999.7,N
1662740695.9,286047002.8,N
1662740715.7,286047002.5,N
1662740735.6,286047004.3,Y
1662740755.4,286047002.4,P
1662740775.2,286047000.2,N
1662740795.1,286046999.7,N
1662740796.0,286046999.7,N
1662740815.8,286047001.6,N
1662740835.6,286047001.7,N
1662740855.5,286047004.2,Y
1662740875.3,286047001.8,P
1662740895.2,286047003.8,P
1662740915.0,286047003.9,P
1662740915.9,286047003.9,N
1662740935.7,286047003.8,N
1662740955.6,286047004.3,Y
1662740975.4,286047000.9,P
1662740995.3,286047000.7,N
1662741015.1,286047000.8,N
1662741035.9,286047000.7,N
1662741055.7,286046999.3,N
1662741075.5,286046996.7,Y
1662741095.4,286046996.7,P
1662741115.2,286046997.5,N
1662741135.0,286046997.4,N
1662741135.9,286046997.4,N
1662741155.8,286046996.5,N
1662741175.6,286046996.6,N
1662741195.5,286046999.1,N
1662741215.3,286046996.6,N
1662741235.1,286046999.4,N
1662741255.9,286046998.8,N
1662741275.7,286046999.0,N
1662741295.5,286046998.1,N
1662741315.4,286047001.1,N
1662741335.2,286046998.6,N
1662741355.1,286046998.1,N
1662741356.0,286046998.1,N
1662741375.8,286047000.7,N
1662741395.6,286046998.7,N
1662741415.5,286047000.0,N
1662741435.3,286047000.0,N
1662741455.1,286046998.7,N
1662741475.9,286046998.1,N
1662741495.7,286047000.6,N
1662741515.6,286047000.8,N
1662741535.4,286047000.4,N
1662741555.2,286046999.0,N
1662741575.1,286047001.0,N
1662741576.0,286047001.0,N
1662741595.8,286046999.6,N
1662741615.7,286047001.2,N
1662741635.5,286046998.7,N
1662741655.3,286046998.8,N
1662741675.2,286046997.8,N
1662741695.9,286046999.2,N
1662741715.7,286046998.2,N
1662741735.6,286047001.2,N
1662741755.4,286046998.5,N
1662741775.3,286046998.7,N
1662741795.1,286047000.9,N
1662741815.8,286047000.4,N
1662741835.7,286046999.9,N
1662741855.5,286047001.2,N
1662741875.4,286046998.4,N
1662741895.2,286047000.8,N
1662741915.0,286047001.1,N
1662741915.9,286047001.1,N
1662741935.8,286046998.4,N
1662741955.6,286047000.7,N
1662741975.4,286047000.2,N
1662741995.3,286047002.3,N
1662742015.1,286047002.7,N
1662742035.9,286047000.0,N
1662742055.7,286047000.9,N
1662742075.5,286047002.7,N
1662742095.4,286047004.4,Y
1662742115.2,286047001.7,P
1662742135.0,286047004.4,P
1662742135.9,286047004.4,N
1662742155.8,286047001.9,N
1662742175.6,286047001.7,N
1662742195.5,286047004.3,N
1662742215.3,286047001.4,N
1662742235.1,286046998.3,N
1662742255.9,286047000.1,N
1662742275.7,286046999.7,N
1662742295.5,286047000.1,N
1662742315.4,286046996.6,N
1662742335.2,286046999.2,N
1662742355.1,286046999.1,N
1662742356.0,286046999.1,N
1662742375.8,286046999.0,N
1662742395.6,286046999.4,N
1662742415.5,286047000.8,N
1662742435.3,286047001.0,N
1662742455.1,286047000.1,N
1662742475.9,286046999.7,N
1662742495.7,286046998.8,N
1662742515.6,286046999.0,N
1662742535.4,286046997.0,N
1662742555.2,286046997.4,N
1662742575.1,286046999.2,N
1662742576.0,286046999.2,N
1662742595.8,286046998.1,N
1662742615.6,286046997.0,N
1662742635.5,286046996.9,N
1662742655.3,286046996.9,N
1662742675.2,286046999.2,N
1662742695.9,286046998.9,N
1662742715.7,286047001.0,N
1662742735.6,286046999.8,N
1662742755.4,286046999.9,N
1662742775.2,286046999.8,N
1662742795.1,286047000.3,N
1662742796.0,286047000.3,N
